Miscellaneous Local Product
Issued by NWS North Platte, NE

Home | Current Version | Previous Version | Graphics & Text | Print | Product List | Glossary On
Versions: 1 2 3 4 5 6 7 8 9 10 11 12 13 14 15 16 17 18 19 20 21 22 23 24 25 26 27 28 29 30 31 32 33 34 35 36 37 38 39 40 41 42 43 44 45 46 47 48 49 50
000
AXUS43 KLBF 311610
MISLBF


WESTERN AND NORTH CENTRAL NEBRASKA HOURLY WEATHER ROUNDUP
NATIONAL WEATHER SERVICE NORTH PLATTE NE
1100 AM CDT SUN MAY 31 2015

***STATIONS NOT REPORTING VARIABLES SUCH AS SKY/WEATHER OR
PRESSURE ARE PROVIDED BY THE NEBRASKA DEPARTMENT OF
ROADS...RAWS...AND APRS NETWORKS...AND ARE NOT UNDER
NATIONAL WEATHER SERVICE QUALITY CONTROL***

...OBSERVATIONS IN AND NEAR THE EASTERN PANHANDLE OF NEBRASKA...

CITY           SKY/WX    TMP DP  RH WIND       PRES   REMARKS
PINE RIDGE     MOSUNNY   64  48  56 SW9       29.99F
CHADRON        SUNNY     67  54  63 NW6       30.00F
ALLIANCE       SUNNY     64  52  64 NW10      30.02S
SIDNEY         SUNNY     70  55  59 VRB5      30.05F
WHITECLAY        N/A     66  48  52 CALM        N/A
CRESCENT LAKE    N/A     63  51  66 S7G16       N/A
BIG SPRINGS      N/A     64  53  67 S15         N/A
$$

...OBSERVATIONS IN NORTH CENTRAL NEBRASKA...

CITY           SKY/WX    TMP DP  RH WIND       PRES   REMARKS
VALENTINE      CLOUDY    53  45  74 SE14      30.06F
THEDFORD       CLOUDY    60  45  57 S20       30.10F
AINSWORTH      LGT RAIN  55  45  70 S13G18    30.11F
O`NEILL        CLOUDY    60  48  64 S9        30.17S
ORD            PTSUNNY   62  47  57 S12       30.14S
BROKEN BOW     CLOUDY    62  49  62 S15       30.13F
BROWNLEE         N/A     55  45  68 SE21        N/A
VALENTINE NWR    N/A     51  42  72 S10         N/A
SPRINGVIEW       N/A     55  48  77 MISG        N/A
HALSEY           N/A     57  44  62 SE9G16      N/A
NEWPORT          N/A     58  48  67 SE15        N/A
SARGENT          N/A     60  47  63 SE3         N/A
CHAMBERS         N/A     61  49  63 MISG        N/A
EWING            N/A     61  51  69 S6G13       N/A
$$

...OBSERVATIONS IN SOUTHWEST NEBRASKA AND FAR NORTHEAST COLORADO...

CITY           SKY/WX    TMP DP  RH WIND       PRES   REMARKS
WRAY           PTSUNNY   67  53  61 S9        30.07F
HOLYOKE        FAIR      66  52  59 S15       30.05F
IMPERIAL       LGT RAIN  60  47  61 S16G23    30.06F
OGALLALA       PTSUNNY   61  48  62 S12       30.06S
NORTH PLATTE   PTSUNNY   64  46  52 SE12      30.09F
MCCOOK         MOSUNNY   66  45  46 S13       30.12F
LEXINGTON      MOSUNNY   64  51  61 S14       30.13F
PAXTON           N/A     60  49  68 SE14        N/A
GOTHENBURG       N/A     63  44  50 S9          N/A
CALLAWAY         N/A     64  51  64 S14         N/A
$$

...NORTH PLATTE AREA...

CITY           SKY/WX    TMP DP  RH WIND       PRES   REMARKS
AIRPORT        PTSUNNY   64  46  52 SE12      30.09F
DOWNTOWN         N/A     63  46  54 SE7G14      N/A
$$

...SOME WEATHER OBSERVATIONS FROM AROUND THE REGION...

CITY           SKY/WX    TMP DP  RH WIND       PRES   REMARKS
DENVER         PTSUNNY   76  46  34 SW7       30.12F
LARAMIE        SUNNY     68  41  37 NW13      30.19F
CHEYENNE       SUNNY     71  41  33 NW16G22   30.14S
SCOTTSBLUFF    SUNNY     65  54  67 NW9       30.04S
RAPID CITY     SUNNY     63  49  60 CALM      29.99F
PIERRE         CLOUDY    52  46  80 SE14      30.08R
WINNER         LGT RAIN  57  44  62 SE17G24   30.09F
SIOUX FALLS    CLOUDY    60  47  61 E10       30.21F
OMAHA          PTSUNNY   63  48  58 E7        30.21R
KANSAS CITY    PTSUNNY   61  50  67 NE13      30.19F
WICHITA        PTSUNNY   67  55  65 NE5       30.16S
HAYS           MOSUNNY   66  50  55 S10       30.16F
LIBERAL        SUNNY     68  52  56 S13       30.16F
GOODLAND       MOSUNNY   66  51  58 S21G28    30.09F
$$



USA.gov is the U.S. government's official web portal to all federal, state and local government web resources and services.